GSAT0221 (GALILEO 25) (43564 NORAD) Tracking and Keplerian Element Data

This shows tracking and keplerian element data for the satellite.

Feedback or suggestion? Click here.




ElementValue
Catalog43564
NameGSAT0221 (GALILEO 25)
Epoch Orbit465
Epoch Day113.59125727
Epoch Year2019
RAAN52.6045
Inclination56.5251
Eccentricity0.0005316
Argument of Perigee291.4864
Mean Anonmoly68.4309
Mean Motion1.70475762
Decay Rate-7.2E-07
L11 43564U 18060A 19113.59125727 -.00000072 00000-0 00000+0 0 9999
L22 43564 56.5251 52.6045 0005316 291.4864 68.4309 1.70475762 4653

Live tracking and technical data element details for GSAT0221 (GALILEO 25) (NORAD 43564). GSAT0221 (GALILEO 25) can be tracked NOW for your location showing map with azimuth and elevation plus other details from your city location.

Track the satellite on the map from your city or location and see movement details for azimuth, elevation, latitude, longitude, range, height, and movement on the map or in text.







IsCatalogInMostPopularTable: catalog: 43564, numindb: 119
Update: records affected: 1



GetName: 43564 GSAT0221 (GALILEO 25)

Hit Count: updated at: Thu, 25 Apr 2019 20:02:08 GMT